Temperature
14 14 14 14 14 14 13 13 13 13 12 12 12 12 12 12 12 12 12 12 12 12 11 11 11 11 11 11 11 10 10 10 10 9 9 9 9 9
14 14 14 14 14 14 13 13 13 13 12 12 12 12 12 12 12 12 12 12 12 11 11 11 11 11 11 10 10 10 10 9 9 9 9 9 9 9
14 14 14 14 14 13 13 13 13 13 13 12 12 12 12 12 12 12 12 11 11 11 11 11 11 10 10 10 10 10 9 9 9 9 9 9 8 8
14 14 14 14 13 13 13 13 13 13 13 12 12 12 12 12 11 11 11 11 11 11 11 10 10 10 10 10 9 9 9 9 9 8 8 8 8 8
14 13 13 13 13 13 13 13 13 13 12 12 12 12 12 12 11 11 11 11 11 11 10 10 10 10 10 9 9 9 9 9 8 8 8 8 8 8
13 13 13 13 13 13 13 13 13 13 12 12 12 12 11 11 11 11 11 11 10 10 10 10 10 9 9 9 9 9 8 8 8 8 8 8 8 8
13 13 13 13 13 12 12 12 12 12 12 12 12 11 11 11 11 11 10 10 10 10 10 10 9 9 9 9 9 9 8 8 8 8 7 7 7 7
13 13 13 12 12 12 12 12 12 12 12 11 11 11 11 11 11 10 10 10 10 9 9 9 9 9 9 9 8 8 8 8 8 7 7 7 7 7
13 13 12 12 12 12 12 12 12 11 11 11 11 11 11 10 10 10 10 10 9 9 9 9 9 9 8 8 8 8 7 7 7 7 7 7 7 7
13 12 12 12 12 12 12 12 12 11 11 11 11 10 10 10 10 10 9 9 9 9 8 8 8 8 8 8 8 7 7 7 7 7 7 6 6 6
12 12 12 12 12 11 11 11 11 11 11 10 10 10 10 10 9 9 9 9 9 8 8 8 8 8 8 7 7 7 7 7 6 6 6 6 6 6
12 12 12 12 11 11 11 11 11 11 10 10 10 10 10 9 9 9 8 8 8 8 7 7 7 7 7 7 7 7 6 6 6 6 6 5 5 5
12 12 11 11 11 11 11 11 10 10 10 10 10 10 9 9 9 8 8 8 7 7 7 6 6 6 6 6 6 6 6 6 5 5 5 5 5 5
11 11 11 11 11 10 10 10 10 10 10 9 9 9 9 9 8 8 8 7 7 7 6 6 6 6 5 5 6 6 6 5 5 5 5 5 4 4
11 11 10 10 10 10 10 10 10 9 9 9 9 9 8 8 8 8 8 7 7 7 6 6 6 6 5 5 5 5 5 5 5 4 4 4 4 4
11 10 10 10 10 10 10 9 9 9 9 8 8 8 8 8 7 7 7 7 7 7 6 6 6 5 5 5 5 5 4 4 4 4 4 4 3 3
10 10 10 10 10 10 9 9 9 9 8 8 8 8 7 7 7 7 6 6 6 6 6 6 5 5 5 4 4 4 4 4 3 3 3 3 3 3
10 10 10 10 9 9 9 9 8 8 8 8 7 7 7 6 6 6 6 5 5 5 5 5 4 4 4 4 4 4 4 3 3 3 2 2 2 3
10 10 9 9 9 8 8 8 8 8 7 7 7 7 6 6 6 5 5 5 5 5 5 4 4 3 3 3 3 3 3 3 3 2 2 2 2 2
9 9 9 9 8 8 8 8 8 7 7 7 7 6 6 6 5 5 5 5 4 4 4 4 4 3 3 3 3 3 3 2 2 2 2 2 2 2
9 9 8 8 8 8 8 7 7 7 7 6 6 6 6 5 5 5 5 4 4 4 4 4 3 3 2 2 2 2 2 2 2 1 1 1 1 1
8 8 8 8 8 7 7 7 7 6 6 6 6 5 5 5 5 4 4 4 4 4 3 3 3 3 2 2 2 2 2 2 1 1 1 1 0 0
8 8 7 7 7 7 7 6 6 6 6 5 5 5 5 5 4 4 4 4 3 3 3 3 3 2 2 2 1 1 1 1 1 1 1 1 0 -0
Wind_Speed
2 2 2 2 2 2 2 3 4 2 1 2 2 2 3 3 4 4 4 4 5 5 6 7 7 7 7 7 7 7 7 7 7 7 8 8 9 9
2 3 2 2 2 2 2 2 2 3 1 1 1 1 2 3 4 4 4 4 4 4 5 5 6 6 6 6 7 7 6 6 6 6 7 7 7 8
2 3 2 2 2 2 2 2 2 3 3 1 1 1 2 2 3 4 4 4 3 3 4 4 5 5 6 6 6 6 6 6 6 6 6 6 6 7
2 2 2 2 2 2 2 2 2 2 3 2 0 1 1 1 2 2 3 3 2 3 4 3 4 4 5 5 5 6 5 6 6 6 6 6 6 7
3 2 1 2 2 1 2 2 1 2 2 3 1 0 1 1 2 2 2 2 2 2 3 3 3 4 4 4 4 4 4 5 5 6 6 6 6 7
2 2 2 2 2 2 2 2 2 3 3 3 1 0 1 1 1 1 2 2 2 2 2 3 3 3 3 4 4 3 2 3 4 4 5 5 5 6
2 1 1 1 2 2 2 3 3 3 2 2 1 0 0 1 1 1 1 2 2 1 2 2 2 3 4 4 4 3 2 3 3 4 4 5 6 6
2 1 1 1 1 2 3 4 5 4 4 3 2 1 2 2 1 1 0 1 2 1 1 2 1 2 3 4 4 3 3 3 3 4 4 5 5 6
2 2 1 1 1 2 2 2 2 3 5 4 3 3 2 3 2 1 1 2 3 1 0 2 2 2 4 4 4 4 4 4 4 4 5 5 5 6
2 2 2 1 1 3 3 2 1 1 1 2 3 3 2 3 3 2 2 1 2 1 0 2 2 3 3 4 4 4 4 4 5 5 5 5 5 5
1 1 2 2 2 4 4 2 1 2 1 1 1 1 1 2 4 2 1 1 2 2 0 1 2 2 2 2 4 4 4 5 5 5 6 6 6 5
1 1 2 3 3 4 4 3 2 2 0 1 2 2 2 1 2 3 2 1 1 2 1 1 1 1 2 2 3 4 4 5 6 6 6 6 6 4
2 1 1 2 3 3 4 3 3 2 1 1 1 1 1 1 0 1 2 2 2 3 2 2 1 1 2 3 3 3 3 3 4 5 6 7 6 4
3 2 2 2 3 3 2 2 2 2 1 1 0 1 1 1 1 1 1 2 2 4 3 3 2 2 2 2 3 3 3 4 3 3 5 6 6 6
3 3 3 2 2 1 1 1 2 2 1 1 1 2 2 1 0 1 1 1 2 3 2 4 3 2 2 3 3 3 3 3 3 3 4 4 4 4
1 1 2 2 2 1 1 1 1 1 1 1 1 1 1 0 1 0 0 1 2 3 3 3 3 2 2 3 4 4 3 3 3 3 4 4 5 4
3 2 2 1 1 0 0 0 0 1 1 1 1 1 1 1 1 1 1 1 1 2 3 2 2 1 3 3 3 4 4 4 4 3 3 4 5 6
4 2 2 2 2 2 2 1 1 2 2 2 2 2 2 2 2 2 1 1 3 3 3 2 2 3 2 2 5 4 4 4 4 3 3 4 6 6
3 2 2 3 3 3 3 3 3 3 3 3 3 3 3 3 2 3 2 2 3 4 3 2 2 1 4 6 3 4 4 3 3 3 4 4 6 7
2 3 3 3 3 3 3 3 3 3 2 3 3 3 3 3 3 4 4 4 4 4 4 3 3 3 4 5 4 4 5 4 4 4 4 4 5 8
3 4 4 4 4 4 4 4 4 4 4 4 4 4 4 4 4 5 4 5 4 4 5 5 5 4 2 1 3 4 4 6 7 5 4 4 5 4
4 5 4 4 4 4 4 4 4 4 4 4 4 4 4 4 5 5 5 4 4 5 5 4 2 1 2 3 5 6 5 4 5 7 8 6 4 4
5 5 5 5 4 4 4 4 5 5 5 5 5 5 4 5 5 5 5 4 4 4 3 3 2 2 3 4 5 5 6 6 4 4 5 8 10 11
Wind_Direction
105 105 93 82 94 114 127 138 138 128 310 314 336 352 18 36 37 49 45 44 51 52 52 50 46 43 41 41 43 41 40 37 33 29 27 26 24 23
96 94 81 82 81 85 111 110 118 141 160 269 272 325 19 42 40 49 48 46 49 51 49 48 46 45 43 39 36 34 32 32 31 26 23 22 21 18
87 100 91 97 92 86 94 101 105 120 138 283 334 1 36 37 30 43 45 46 43 45 39 41 42 42 40 35 32 30 28 24 24 22 18 16 15 11
116 102 87 102 99 101 110 115 126 134 142 150 357 8 9 5 31 45 44 47 47 41 33 32 30 29 29 27 27 25 23 23 21 17 15 11 10 10
135 135 136 120 107 113 127 129 133 120 123 138 141 16 1 14 28 30 32 24 23 26 24 21 17 14 13 12 11 14 21 24 24 21 13 7 5 5
125 141 156 153 149 148 133 133 127 115 115 123 127 38 346 341 25 16 354 352 348 6 0 350 355 1 356 349 346 353 7 14 12 1 2 359 356 354
102 113 150 159 164 160 145 144 135 126 123 127 136 95 326 335 301 286 288 328 323 354 351 339 356 356 339 331 325 320 323 335 344 346 342 342 343 340
148 139 104 102 141 140 147 148 146 143 153 147 162 197 246 244 243 233 245 343 306 320 338 312 0 315 308 307 311 309 300 308 320 328 331 332 336 340
163 154 137 101 101 107 109 120 152 166 161 157 172 212 221 218 189 215 233 240 248 267 39 295 320 304 303 304 315 315 311 310 310 316 322 330 336 334
172 175 168 180 150 139 120 101 76 35 192 175 194 222 229 201 189 200 211 259 280 300 145 270 297 297 311 305 307 306 306 304 310 316 318 320 325 328
174 167 179 194 192 148 131 129 69 347 13 156 203 231 243 194 155 117 104 47 297 289 242 244 289 305 301 299 306 303 300 301 299 305 312 312 310 315
176 207 206 199 191 162 153 156 190 254 304 41 43 29 47 114 158 169 177 194 262 274 256 227 278 320 303 301 320 312 305 304 302 300 306 310 307 306
187 218 230 202 192 182 169 178 207 187 165 140 87 18 19 26 360 223 197 189 217 248 231 182 234 258 258 293 307 306 303 309 309 305 306 307 309 304
199 212 212 205 196 189 180 205 183 129 121 116 84 315 306 297 298 298 258 251 249 246 230 191 213 223 241 278 285 302 307 302 300 306 310 310 310 306
194 192 198 202 188 184 189 148 124 121 129 157 257 274 277 270 309 28 23 15 348 323 289 239 223 232 231 250 268 283 299 303 297 306 310 307 304 307
173 154 135 122 113 99 80 86 117 160 168 216 265 281 315 314 273 284 292 323 327 318 332 294 243 215 245 263 261 269 270 281 303 300 302 301 301 296
142 110 102 102 105 100 25 153 164 158 221 249 247 273 281 284 288 295 280 303 279 287 310 332 346 272 246 247 264 265 268 278 282 292 301 300 297 296
134 147 172 184 203 215 223 243 238 231 229 225 231 239 248 256 271 289 280 260 274 282 291 304 329 338 325 289 231 247 261 271 281 282 273 281 291 296
145 179 197 208 217 221 225 231 242 241 228 222 232 240 247 255 265 267 262 274 279 279 283 280 285 292 299 298 282 233 245 271 277 278 271 267 276 289
187 204 218 223 225 228 231 237 246 246 238 241 246 247 243 247 256 256 250 257 267 276 282 277 258 253 260 274 282 285 255 249 260 271 277 280 276 284
218 223 226 229 233 235 237 238 239 242 246 245 248 247 245 244 251 253 253 258 265 267 265 267 266 257 268 300 291 289 277 258 253 259 271 283 290 292
222 225 231 233 234 237 240 240 244 248 248 246 248 248 246 243 249 250 249 253 256 258 267 277 279 266 257 262 275 286 293 299 288 277 268 260 264 277
229 229 230 232 234 238 240 240 241 245 243 245 247 248 247 249 250 246 247 248 253 258 270 279 286 279 271 266 275 285 289 298 302 303 295 290 281 279
Height
1552 1552 1551 1551 1551 1552 1552 1552 1552 1551 1552 1552 1552 1552 1551 1551 1551 1550 1550 1549 1548 1548 1547 1546 1545 1543 1542 1541 1540 1538 1537 1536 1535 1534 1532 1531 1530 1528
1552 1552 1552 1552 1552 1552 1552 1552 1552 1552 1551 1552 1551 1551 1551 1551 1550 1550 1549 1548 1548 1547 1546 1545 1544 1543 1542 1540 1539 1538 1536 1535 1534 1533 1531 1530 1529 1527
1552 1552 1552 1552 1551 1552 1552 1551 1551 1551 1551 1551 1551 1551 1551 1550 1550 1549 1549 1548 1547 1546 1545 1544 1543 1542 1541 1540 1538 1537 1535 1534 1533 1532 1530 1529 1528 1526
1551 1551 1551 1551 1551 1551 1551 1551 1551 1551 1551 1550 1551 1550 1550 1550 1549 1549 1548 1547 1546 1545 1544 1543 1542 1541 1540 1538 1537 1535 1534 1533 1531 1530 1529 1528 1526 1525
1551 1551 1551 1551 1551 1551 1551 1550 1550 1550 1550 1550 1550 1550 1549 1549 1548 1548 1547 1546 1545 1544 1543 1542 1541 1540 1538 1537 1536 1534 1533 1531 1530 1528 1527 1526 1525 1524
1550 1550 1551 1551 1550 1550 1550 1550 1549 1549 1549 1549 1549 1548 1548 1548 1547 1546 1545 1544 1544 1543 1542 1541 1539 1538 1537 1535 1534 1533 1531 1530 1528 1527 1525 1524 1523 1522
1549 1549 1550 1550 1550 1549 1549 1549 1549 1548 1548 1548 1547 1547 1546 1546 1545 1545 1544 1543 1542 1541 1540 1539 1538 1536 1535 1534 1532 1531 1530 1528 1527 1525 1524 1522 1521 1520
1548 1548 1549 1549 1549 1549 1548 1548 1548 1547 1547 1546 1546 1545 1545 1544 1544 1543 1542 1541 1539 1539 1538 1537 1536 1534 1533 1531 1530 1529 1528 1526 1525 1524 1522 1521 1519 1517
1547 1547 1547 1547 1547 1547 1547 1547 1546 1546 1546 1545 1544 1544 1543 1542 1542 1541 1540 1539 1538 1537 1535 1533 1533 1532 1531 1529 1528 1527 1525 1524 1522 1521 1520 1518 1516 1515
1545 1545 1546 1546 1546 1545 1545 1545 1545 1544 1544 1543 1543 1542 1542 1541 1540 1539 1538 1537 1535 1534 1533 1531 1529 1528 1527 1526 1525 1524 1522 1521 1520 1518 1517 1515 1513 1512
1543 1543 1543 1543 1544 1543 1543 1543 1542 1542 1542 1541 1541 1540 1539 1538 1537 1536 1535 1533 1532 1531 1530 1528 1526 1525 1524 1523 1522 1520 1519 1518 1516 1515 1513 1511 1510 1508
1541 1541 1541 1541 1541 1541 1541 1540 1540 1540 1539 1539 1538 1538 1537 1536 1535 1534 1532 1531 1529 1528 1527 1526 1524 1522 1520 1519 1518 1517 1515 1514 1513 1511 1510 1508 1506 1504
1538 1538 1539 1539 1539 1539 1538 1538 1538 1537 1537 1536 1535 1535 1534 1533 1532 1531 1530 1528 1527 1526 1525 1523 1521 1520 1518 1516 1515 1514 1512 1510 1509 1507 1506 1504 1502 1500
1535 1535 1536 1536 1536 1536 1535 1535 1535 1535 1534 1533 1532 1531 1530 1529 1528 1527 1526 1525 1524 1523 1522 1520 1518 1517 1515 1513 1511 1509 1508 1507 1505 1503 1501 1500 1498 1496
1532 1533 1533 1533 1533 1533 1533 1532 1532 1531 1530 1530 1529 1528 1527 1526 1525 1524 1523 1522 1521 1519 1518 1517 1515 1514 1512 1510 1508 1506 1504 1503 1501 1499 1497 1496 1494 1492
1529 1529 1530 1530 1529 1529 1529 1529 1528 1528 1527 1526 1525 1525 1523 1522 1521 1520 1518 1517 1516 1515 1514 1513 1511 1510 1508 1506 1504 1502 1501 1499 1497 1495 1493 1491 1489 1487
1525 1526 1526 1526 1526 1525 1525 1525 1525 1524 1523 1523 1522 1521 1520 1518 1517 1516 1515 1513 1512 1510 1509 1508 1507 1505 1503 1502 1500 1498 1496 1495 1493 1491 1489 1486 1485 1483
1522 1521 1521 1521 1522 1521 1521 1521 1521 1520 1519 1518 1518 1517 1515 1514 1513 1512 1511 1510 1508 1507 1505 1504 1502 1500 1498 1496 1496 1493 1492 1490 1488 1486 1484 1482 1479 1478
1517 1517 1517 1517 1518 1518 1517 1517 1516 1516 1515 1514 1513 1512 1511 1510 1509 1508 1507 1505 1504 1503 1501 1500 1498 1496 1494 1491 1490 1489 1488 1485 1483 1481 1479 1477 1475 1473
1513 1513 1513 1513 1513 1513 1513 1512 1512 1511 1510 1509 1509 1507 1506 1505 1504 1503 1502 1501 1499 1498 1496 1495 1494 1492 1490 1488 1485 1484 1483 1481 1478 1476 1474 1472 1470 1468
1508 1508 1509 1509 1509 1508 1508 1507 1507 1506 1505 1504 1503 1503 1501 1500 1499 1498 1497 1496 1494 1493 1491 1490 1489 1488 1486 1484 1481 1478 1478 1477 1474 1472 1469 1467 1464 1462
1504 1504 1504 1504 1504 1503 1503 1502 1502 1501 1500 1499 1498 1497 1496 1495 1494 1493 1492 1491 1489 1488 1486 1485 1484 1482 1481 1479 1476 1474 1472 1471 1469 1468 1466 1463 1461 1457
1498 1498 1498 1498 1498 1498 1497 1497 1496 1495 1494 1494 1493 1492 1491 1489 1488 1487 1486 1485 1484 1483 1481 1479 1478 1477 1475 1474 1472 1470 1468 1466 1464 1462 1461 1459 1457 1455